Time,TemperatureF,DewpointF,PressureIn,WindDirection,WindDirectionDegrees,WindSpeedMPH,WindSpeedGustMPH,Humidity,HourlyPrecipIn,Conditions,Clouds,dailyrainin,SoftwareType,DateUTC
2013-01-18 00:00:00,20.4,16.4,30.42,SE,144,0.0,0.0,84,0.00,,,0.00,VWS V14.01,2013-01-18 05:00:00,
2013-01-18 00:01:00,20.4,16.4,30.43,SE,143,0.0,0.0,84,0.00,,,0.00,VWS V14.01,2013-01-18 05:01:00,
2013-01-18 00:03:00,20.4,16.4,30.43,SE,143,0.0,0.0,84,0.00,,,0.00,VWS V14.01,2013-01-18 05:03:00,
2013-01-18 00:08:00,20.4,16.4,30.43,WSW,240,0.0,0.0,84,0.00,,,0.00,VWS V14.01,2013-01-18 05:08:00,
2013-01-18 00:13:00,20.4,16.4,30.43,SW,232,0.0,0.0,84,0.00,,,0.00,VWS V14.01,2013-01-18 05:13:00,
2013-01-18 00:18:00,20.4,16.4,30.43,SW,232,0.0,0.0,84,0.00,,,0.00,VWS V14.01,2013-01-18 05:18:00,
2013-01-18 00:23:00,20.3,16.2,30.43,WSW,249,0.0,0.0,84,0.00,,,0.00,VWS V14.01,2013-01-18 05:23:00,
2013-01-18 00:28:00,20.5,16.4,30.43,WSW,257,0.0,0.0,84,0.00,,,0.00,VWS V14.01,2013-01-18 05:28:00,
2013-01-18 00:30:00,20.4,16.4,30.43,WSW,257,0.0,1.0,84,0.00,,,0.00,VWS V14.01,2013-01-18 05:30:00,
2013-01-18 00:33:00,20.5,16.2,30.43,WSW,257,0.0,0.0,83,0.00,,,0.00,VWS V14.01,2013-01-18 05:33:00,
2013-01-18 00:38:00,20.4,16.1,30.43,WSW,257,0.0,0.0,83,0.00,,,0.00,VWS V14.01,2013-01-18 05:38:00,
2013-01-18 00:43:00,20.4,16.1,30.44,WSW,238,0.0,0.0,83,0.00,,,0.00,VWS V14.01,2013-01-18 05:43:00,
2013-01-18 00:48:00,20.5,16.2,30.44,WSW,248,0.0,1.0,83,0.00,,,0.00,VWS V14.01,2013-01-18 05:48:00,
2013-01-18 00:53:00,20.4,15.8,30.44,WSW,248,0.0,1.0,82,0.00,,,0.00,VWS V14.01,2013-01-18 05:53:00,
2013-01-18 00:58:00,20.2,15.9,30.43,WSW,248,0.0,0.0,83,0.00,,,0.00,VWS V14.01,2013-01-18 05:58:00,
2013-01-18 01:00:00,20.2,15.6,30.43,WSW,248,0.0,1.0,82,0.00,,,0.00,VWS V14.01,2013-01-18 06:00:00,
2013-01-18 01:03:00,20.0,15.7,30.43,WSW,248,0.0,0.0,83,0.00,,,0.00,VWS V14.01,2013-01-18 06:03:00,
2013-01-18 01:08:00,19.9,15.6,30.44,WSW,248,0.0,0.0,83,0.00,,,0.00,VWS V14.01,2013-01-18 06:08:00,
2013-01-18 01:13:00,20.0,15.9,30.44,WSW,246,0.0,1.0,84,0.00,,,0.00,VWS V14.01,2013-01-18 06:13:00,
2013-01-18 01:18:00,20.0,15.7,30.44,SW,233,0.0,1.0,83,0.00,,,0.00,VWS V14.01,2013-01-18 06:18:00,
2013-01-18 01:23:00,19.9,15.6,30.44,SW,233,0.0,1.0,83,0.00,,,0.00,VWS V14.01,2013-01-18 06:23:00,
2013-01-18 01:28:00,19.7,15.7,30.44,SW,233,0.0,0.0,84,0.00,,,0.00,VWS V14.01,2013-01-18 06:28:00,
2013-01-18 01:30:00,19.7,15.7,30.44,SW,233,0.0,1.0,84,0.00,,,0.00,VWS V14.01,2013-01-18 06:30:00,
2013-01-18 01:33:00,19.8,15.8,30.44,SW,233,0.0,0.0,84,0.00,,,0.00,VWS V14.01,2013-01-18 06:33:00,
2013-01-18 01:38:00,19.8,15.8,30.44,SW,235,0.0,0.0,84,0.00,,,0.00,VWS V14.01,2013-01-18 06:38:00,
2013-01-18 01:43:00,19.7,15.7,30.45,SSW,197,0.0,0.0,84,0.00,,,0.00,VWS V14.01,2013-01-18 06:43:00,
2013-01-18 01:48:00,19.7,15.9,30.45,SW,215,0.0,1.0,85,0.00,,,0.00,VWS V14.01,2013-01-18 06:48:00,
2013-01-18 01:53:00,19.6,15.8,30.45,South,170,0.0,1.0,85,0.00,,,0.00,VWS V14.01,2013-01-18 06:53:00,
2013-01-18 01:58:00,19.5,15.5,30.45,South,170,0.0,0.0,84,0.00,,,0.00,VWS V14.01,2013-01-18 06:58:00,
2013-01-18 02:00:00,19.5,15.5,30.45,South,170,0.0,1.0,84,0.00,,,0.00,VWS V14.01,2013-01-18 07:00:00,
2013-01-18 02:03:00,19.3,15.3,30.45,South,171,0.0,0.0,84,0.00,,,0.00,VWS V14.01,2013-01-18 07:03:00,
2013-01-18 02:08:00,19.2,15.4,30.46,SSW,210,0.0,0.0,85,0.00,,,0.00,VWS V14.01,2013-01-18 07:08:00,
2013-01-18 02:13:00,19.3,15.5,30.46,SSW,210,0.0,0.0,85,0.00,,,0.00,VWS V14.01,2013-01-18 07:13:00,
2013-01-18 02:18:00,19.2,15.4,30.47,SSW,210,0.0,0.0,85,0.00,,,0.00,VWS V14.01,2013-01-18 07:18:00,
2013-01-18 02:23:00,19.4,15.9,30.47,SW,225,0.0,1.0,86,0.00,,,0.00,VWS V14.01,2013-01-18 07:23:00,
2013-01-18 02:28:00,19.4,15.6,30.47,SW,225,0.0,0.0,85,0.00,,,0.00,VWS V14.01,2013-01-18 07:28:00,
2013-01-18 02:30:00,19.4,15.6,30.47,SW,225,0.0,1.0,85,0.00,,,0.00,VWS V14.01,2013-01-18 07:30:00,
2013-01-18 02:33:00,19.3,15.5,30.47,SW,225,0.0,0.0,85,0.00,,,0.00,VWS V14.01,2013-01-18 07:33:00,
2013-01-18 02:38:00,19.0,15.2,30.47,SW,225,0.0,0.0,85,0.00,,,0.00,VWS V14.01,2013-01-18 07:38:00,
2013-01-18 02:43:00,18.9,15.4,30.47,SW,225,0.0,0.0,86,0.00,,,0.00,VWS V14.01,2013-01-18 07:43:00,
2013-01-18 02:48:00,18.9,15.4,30.47,SW,224,1.0,1.0,86,0.00,,,0.00,VWS V14.01,2013-01-18 07:48:00,
2013-01-18 02:53:00,19.2,15.7,30.48,SSW,210,1.0,1.0,86,0.00,,,0.00,VWS V14.01,2013-01-18 07:53:00,
2013-01-18 02:58:00,19.3,15.8,30.48,SW,236,0.0,1.0,86,0.00,,,0.00,VWS V14.01,2013-01-18 07:58:00,
2013-01-18 03:00:00,19.3,15.8,30.48,SW,236,0.0,1.0,86,0.00,,,0.00,VWS V14.01,2013-01-18 08:00:00,
2013-01-18 03:03:00,19.6,16.1,30.48,WSW,253,0.0,1.0,86,0.00,,,0.00,VWS V14.01,2013-01-18 08:03:00,
2013-01-18 03:08:00,19.6,15.8,30.48,SW,219,0.0,2.0,85,0.00,,,0.00,VWS V14.01,2013-01-18 08:08:00,
2013-01-18 03:13:00,19.7,15.9,30.48,WSW,242,0.0,2.0,85,0.00,,,0.00,VWS V14.01,2013-01-18 08:13:00,
2013-01-18 03:18:00,19.8,16.0,30.49,WSW,238,0.0,2.0,85,0.00,,,0.00,VWS V14.01,2013-01-18 08:18:00,
2013-01-18 03:23:00,19.9,16.1,30.48,SW,231,0.0,2.0,85,0.00,,,0.00,VWS V14.01,2013-01-18 08:23:00,
2013-01-18 03:28:00,19.9,16.1,30.48,SW,217,0.0,0.0,85,0.00,,,0.00,VWS V14.01,2013-01-18 08:28:00,
2013-01-18 03:30:00,19.9,16.1,30.48,SW,216,0.0,2.0,85,0.00,,,0.00,VWS V14.01,2013-01-18 08:30:00,
2013-01-18 03:33:00,19.9,16.1,30.48,South,180,0.0,1.0,85,0.00,,,0.00,VWS V14.01,2013-01-18 08:33:00,
2013-01-18 03:38:00,19.8,16.0,30.48,SW,217,0.0,1.0,85,0.00,,,0.00,VWS V14.01,2013-01-18 08:38:00,
2013-01-18 03:43:00,19.7,15.9,30.48,SW,217,0.0,0.0,85,0.00,,,0.00,VWS V14.01,2013-01-18 08:43:00,
2013-01-18 03:48:00,19.5,15.7,30.48,SW,217,0.0,0.0,85,0.00,,,0.00,VWS V14.01,2013-01-18 08:48:00,
2013-01-18 03:53:00,19.1,15.3,30.48,SW,217,0.0,0.0,85,0.00,,,0.00,VWS V14.01,2013-01-18 08:53:00,
2013-01-18 03:58:00,19.0,15.5,30.48,SW,217,0.0,0.0,86,0.00,,,0.00,VWS V14.01,2013-01-18 08:58:00,
2013-01-18 04:00:00,19.0,15.5,30.48,SW,217,0.0,0.0,86,0.00,,,0.00,VWS V14.01,2013-01-18 09:00:00,
2013-01-18 04:03:00,19.0,15.5,30.47,SW,216,0.0,0.0,86,0.00,,,0.00,VWS V14.01,2013-01-18 09:03:00,
2013-01-18 04:08:00,18.9,15.4,30.47,SW,217,0.0,0.0,86,0.00,,,0.00,VWS V14.01,2013-01-18 09:08:00,
2013-01-18 04:13:00,18.8,15.3,30.47,SW,217,0.0,0.0,86,0.00,,,0.00,VWS V14.01,2013-01-18 09:13:00,
2013-01-18 04:18:00,18.8,15.3,30.47,SW,217,0.0,0.0,86,0.00,,,0.00,VWS V14.01,2013-01-18 09:18:00,
2013-01-18 04:23:00,18.5,15.0,30.47,SW,217,0.0,0.0,86,0.00,,,0.00,VWS V14.01,2013-01-18 09:23:00,
2013-01-18 04:28:00,18.3,14.8,30.47,SW,217,0.0,0.0,86,0.00,,,0.00,VWS V14.01,2013-01-18 09:28:00,
2013-01-18 04:30:00,18.3,14.8,30.47,SW,217,0.0,0.0,86,0.00,,,0.00,VWS V14.01,2013-01-18 09:30:00,
2013-01-18 04:33:00,18.3,15.1,30.46,SW,217,0.0,0.0,87,0.00,,,0.00,VWS V14.01,2013-01-18 09:33:00,
2013-01-18 04:38:00,18.2,15.0,30.46,SW,217,0.0,0.0,87,0.00,,,0.00,VWS V14.01,2013-01-18 09:38:00,
2013-01-18 04:43:00,18.2,15.2,30.46,SW,217,0.0,0.0,88,0.00,,,0.00,VWS V14.01,2013-01-18 09:43:00,
2013-01-18 04:48:00,18.0,14.8,30.46,SW,217,0.0,0.0,87,0.00,,,0.00,VWS V14.01,2013-01-18 09:48:00,
2013-01-18 04:53:00,18.1,15.1,30.47,SW,217,0.0,0.0,88,0.00,,,0.00,VWS V14.01,2013-01-18 09:53:00,
2013-01-18 04:58:00,18.0,15.1,30.46,SW,217,0.0,0.0,88,0.00,,,0.00,VWS V14.01,2013-01-18 09:58:00,
2013-01-18 05:00:00,18.1,15.1,30.46,SW,217,0.0,0.0,88,0.00,,,0.00,VWS V14.01,2013-01-18 10:00:00,
2013-01-18 05:03:00,17.9,14.9,30.47,SSW,201,0.0,0.0,88,0.00,,,0.00,VWS V14.01,2013-01-18 10:03:00,
2013-01-18 05:08:00,17.9,15.2,30.46,SSW,202,0.0,0.0,89,0.00,,,0.00,VWS V14.01,2013-01-18 10:08:00,
2013-01-18 05:14:00,17.9,15.2,30.46,SSW,202,0.0,0.0,89,0.00,,,0.00,VWS V14.01,2013-01-18 10:14:00,
2013-01-18 05:19:00,17.8,15.1,30.46,SSW,203,0.0,0.0,89,0.00,,,0.00,VWS V14.01,2013-01-18 10:19:00,
2013-01-18 05:24:00,17.8,15.1,30.47,SSW,203,0.0,0.0,89,0.00,,,0.00,VWS V14.01,2013-01-18 10:24:00,
2013-01-18 05:29:00,18.0,15.3,30.47,SSW,213,0.0,0.0,89,0.00,,,0.00,VWS V14.01,2013-01-18 10:29:00,
2013-01-18 05:30:00,17.9,15.2,30.47,SSW,203,0.0,0.0,89,0.00,,,0.00,VWS V14.01,2013-01-18 10:30:00,
2013-01-18 05:34:00,18.3,15.6,30.47,SW,214,0.0,0.0,89,0.00,,,0.00,VWS V14.01,2013-01-18 10:34:00,
2013-01-18 05:39:00,18.6,15.9,30.48,SW,222,0.0,1.0,89,0.00,,,0.00,VWS V14.01,2013-01-18 10:39:00,
2013-01-18 05:44:00,18.9,15.9,30.48,SW,218,0.0,2.0,88,0.00,,,0.00,VWS V14.01,2013-01-18 10:44:00,
2013-01-18 05:49:00,19.2,16.2,30.47,SW,231,0.0,2.0,88,0.00,,,0.00,VWS V14.01,2013-01-18 10:49:00,
2013-01-18 05:54:00,19.3,16.1,30.47,SE,132,1.0,2.0,87,0.00,,,0.00,VWS V14.01,2013-01-18 10:54:00,
2013-01-18 05:59:00,19.6,16.4,30.47,SSW,213,0.0,1.0,87,0.00,,,0.00,VWS V14.01,2013-01-18 10:59:00,
2013-01-18 06:00:00,19.5,16.3,30.47,SSW,213,0.0,1.0,87,0.00,,,0.00,VWS V14.01,2013-01-18 11:00:00,
2013-01-18 06:04:00,19.6,16.1,30.47,SW,219,0.0,1.0,86,0.00,,,0.00,VWS V14.01,2013-01-18 11:04:00,
2013-01-18 06:09:00,19.7,16.2,30.47,WSW,240,0.0,1.0,86,0.00,,,0.00,VWS V14.01,2013-01-18 11:09:00,
2013-01-18 06:14:00,20.0,16.5,30.48,SW,229,0.0,2.0,86,0.00,,,0.00,VWS V14.01,2013-01-18 11:14:00,
2013-01-18 06:19:00,20.0,16.2,30.47,SSW,198,0.0,2.0,85,0.00,,,0.00,VWS V14.01,2013-01-18 11:19:00,
2013-01-18 06:24:00,19.9,16.4,30.47,South,191,0.0,2.0,86,0.00,,,0.00,VWS V14.01,2013-01-18 11:24:00,
2013-01-18 06:29:00,20.0,16.5,30.48,SSW,213,0.0,0.0,86,0.00,,,0.00,VWS V14.01,2013-01-18 11:29:00,
2013-01-18 06:30:00,19.9,16.4,30.48,SSW,210,0.0,2.0,86,0.00,,,0.00,VWS V14.01,2013-01-18 11:30:00,
2013-01-18 06:34:00,20.1,16.6,30.48,SSE,153,0.0,1.0,86,0.00,,,0.00,VWS V14.01,2013-01-18 11:34:00,
2013-01-18 06:39:00,20.1,16.6,30.48,WSW,239,0.0,2.0,86,0.00,,,0.00,VWS V14.01,2013-01-18 11:39:00,
2013-01-18 06:44:00,20.2,16.4,30.48,SSW,213,0.0,2.0,85,0.00,,,0.00,VWS V14.01,2013-01-18 11:44:00,
2013-01-18 06:49:00,20.2,16.4,30.48,SSW,197,0.0,2.0,85,0.00,,,0.00,VWS V14.01,2013-01-18 11:49:00,
2013-01-18 06:54:00,20.4,16.6,30.48,SW,214,0.0,3.0,85,0.00,,,0.00,VWS V14.01,2013-01-18 11:54:00,
2013-01-18 06:59:00,20.5,16.7,30.47,SW,228,0.0,2.0,85,0.00,,,0.00,VWS V14.01,2013-01-18 11:59:00,
2013-01-18 07:00:00,20.5,16.7,30.47,SSW,213,2.0,4.0,85,0.00,,,0.00,VWS V14.01,2013-01-18 12:00:00,
2013-01-18 07:04:00,20.6,16.5,30.47,SSW,204,0.0,5.0,84,0.00,,,0.00,VWS V14.01,2013-01-18 12:04:00,
2013-01-18 07:09:00,20.8,16.7,30.48,SSE,159,0.0,5.0,84,0.00,,,0.00,VWS V14.01,2013-01-18 12:09:00,
2013-01-18 07:14:00,20.8,16.5,30.48,SW,221,1.0,1.0,83,0.00,,,0.00,VWS V14.01,2013-01-18 12:14:00,
2013-01-18 07:20:00,20.9,16.6,30.47,SW,214,0.0,0.0,83,0.00,,,0.00,VWS V14.01,2013-01-18 12:20:00,
2013-01-18 07:25:00,21.0,16.7,30.47,SSW,212,1.0,3.0,83,0.00,,,0.00,VWS V14.01,2013-01-18 12:25:00,
2013-01-18 07:30:00,21.0,16.7,30.48,SSW,210,0.0,4.0,83,0.00,,,0.00,VWS V14.01,2013-01-18 12:30:00,
2013-01-18 07:35:00,21.1,16.8,30.48,SSE,163,0.0,4.0,83,0.00,,,0.00,VWS V14.01,2013-01-18 12:35:00,
2013-01-18 07:40:00,21.1,16.8,30.48,SW,228,0.0,4.0,83,0.00,,,0.00,VWS V14.01,2013-01-18 12:40:00,
2013-01-18 07:45:00,21.0,16.7,30.48,SW,222,0.0,4.0,83,0.00,,,0.00,VWS V14.01,2013-01-18 12:45:00,
2013-01-18 07:50:00,20.9,16.6,30.48,WSW,243,0.0,4.0,83,0.00,,,0.00,VWS V14.01,2013-01-18 12:50:00,
2013-01-18 07:55:00,20.9,16.6,30.48,SSW,208,2.0,4.0,83,0.00,,,0.00,VWS V14.01,2013-01-18 12:55:00,
2013-01-18 08:00:00,20.8,16.5,30.48,SW,214,0.0,0.0,83,0.00,,,0.00,VWS V14.01,2013-01-18 13:00:00,
2013-01-18 08:05:00,20.8,16.7,30.48,SW,214,0.0,0.0,84,0.00,,,0.00,VWS V14.01,2013-01-18 13:05:00,
2013-01-18 08:10:00,20.6,16.5,30.48,SSE,158,0.0,0.0,84,0.00,,,0.00,VWS V14.01,2013-01-18 13:10:00,
2013-01-18 08:15:00,20.6,16.5,30.48,SSE,166,0.0,2.0,84,0.00,,,0.00,VWS V14.01,2013-01-18 13:15:00,
2013-01-18 08:20:00,20.6,16.5,30.48,South,169,0.0,2.0,84,0.00,,,0.00,VWS V14.01,2013-01-18 13:20:00,
2013-01-18 08:25:00,20.7,16.6,30.48,SSW,198,1.0,2.0,84,0.00,,,0.00,VWS V14.01,2013-01-18 13:25:00,
2013-01-18 08:30:00,20.9,16.8,30.48,South,179,2.0,3.0,84,0.00,,,0.00,VWS V14.01,2013-01-18 13:30:00,
2013-01-18 08:35:00,21.1,17.0,30.48,South,174,1.0,3.0,84,0.00,,,0.00,VWS V14.01,2013-01-18 13:35:00,
2013-01-18 08:40:00,21.4,17.3,30.48,South,183,0.0,4.0,84,0.00,,,0.00,VWS V14.01,2013-01-18 13:40:00,
2013-01-18 08:45:00,21.8,17.4,30.48,SSE,153,0.0,1.0,83,0.00,,,0.00,VWS V14.01,2013-01-18 13:45:00,
2013-01-18 08:50:00,22.2,17.5,30.48,South,188,1.0,4.0,82,0.00,,,0.00,VWS V14.01,2013-01-18 13:50:00,
2013-01-18 08:55:00,22.5,17.9,30.48,SSW,208,3.0,4.0,82,0.00,,,0.00,VWS V14.01,2013-01-18 13:55:00,
2013-01-18 09:00:00,22.9,17.7,30.48,SSW,193,1.0,4.0,80,0.00,,,0.00,VWS V14.01,2013-01-18 14:00:00,
2013-01-18 09:05:00,23.3,17.8,30.48,SSW,201,1.0,4.0,79,0.00,,,0.00,VWS V14.01,2013-01-18 14:05:00,
2013-01-18 09:10:00,23.8,18.2,30.48,SSE,159,1.0,6.0,79,0.00,,,0.00,VWS V14.01,2013-01-18 14:10:00,
2013-01-18 09:15:00,24.2,18.3,30.48,SW,228,4.0,7.0,78,0.00,,,0.00,VWS V14.01,2013-01-18 14:15:00,
2013-01-18 09:20:00,24.6,18.4,30.48,SW,226,4.0,5.0,77,0.00,,,0.00,VWS V14.01,2013-01-18 14:20:00,
2013-01-18 09:25:00,24.9,18.4,30.48,SSW,213,1.0,5.0,76,0.00,,,0.00,VWS V14.01,2013-01-18 14:25:00,
2013-01-18 09:30:00,25.4,18.9,30.49,South,180,2.0,4.0,76,0.00,,,0.00,VWS V14.01,2013-01-18 14:30:00,
2013-01-18 09:35:00,25.8,18.7,30.49,SSW,198,4.0,7.0,74,0.00,,,0.00,VWS V14.01,2013-01-18 14:35:00,
2013-01-18 09:40:00,26.2,19.1,30.49,SSE,160,2.0,7.0,74,0.00,,,0.00,VWS V14.01,2013-01-18 14:40:00,
2013-01-18 09:45:00,26.8,19.6,30.49,South,177,3.0,7.0,74,0.00,,,0.00,VWS V14.01,2013-01-18 14:45:00,
2013-01-18 09:50:00,27.1,19.6,30.49,SSW,201,2.0,7.0,73,0.00,,,0.00,VWS V14.01,2013-01-18 14:50:00,
2013-01-18 09:55:00,27.4,19.6,30.49,SW,226,4.0,7.0,72,0.00,,,0.00,VWS V14.01,2013-01-18 14:55:00,
2013-01-18 10:00:00,27.9,20.1,30.49,SW,228,6.0,6.0,72,0.00,,,0.00,VWS V14.01,2013-01-18 15:00:00,
2013-01-18 10:05:00,28.2,20.0,30.49,SSW,201,2.0,7.0,71,0.00,,,0.00,VWS V14.01,2013-01-18 15:05:00,
2013-01-18 10:10:00,28.5,19.3,30.48,South,183,5.0,10.0,68,0.00,,,0.00,VWS V14.01,2013-01-18 15:10:00,
2013-01-18 10:15:00,28.8,19.9,30.48,SW,228,2.0,10.0,69,0.00,,,0.00,VWS V14.01,2013-01-18 15:15:00,
2013-01-18 10:20:00,29.1,19.9,30.48,SSW,194,7.0,10.0,68,0.00,,,0.00,VWS V14.01,2013-01-18 15:20:00,
2013-01-18 10:25:00,29.1,19.9,30.48,SW,226,1.0,10.0,68,0.00,,,0.00,VWS V14.01,2013-01-18 15:25:00,
2013-01-18 10:30:00,29.5,20.6,30.48,WSW,253,4.0,9.0,69,0.00,,,0.00,VWS V14.01,2013-01-18 15:30:00,
2013-01-18 10:35:00,29.7,20.5,30.49,SSW,207,3.0,10.0,68,0.00,,,0.00,VWS V14.01,2013-01-18 15:35:00,
2013-01-18 10:40:00,29.8,20.9,30.48,SSW,207,5.0,11.0,69,0.00,,,0.00,VWS V14.01,2013-01-18 15:40:00,
2013-01-18 10:45:00,30.2,20.9,30.48,SW,215,3.0,3.0,68,0.00,,,0.00,VWS V14.01,2013-01-18 15:45:00,
2013-01-18 10:50:00,30.1,20.5,30.48,SSE,166,3.0,11.0,67,0.00,,,0.00,VWS V14.01,2013-01-18 15:50:00,
2013-01-18 10:55:00,30.1,20.8,30.48,SW,222,11.0,12.0,68,0.00,,,0.00,VWS V14.01,2013-01-18 15:55:00,
2013-01-18 11:00:00,30.5,21.6,30.48,SSW,204,2.0,9.0,69,0.00,,,0.00,VWS V14.01,2013-01-18 16:00:00,
2013-01-18 11:05:00,30.9,21.6,30.48,SW,231,9.0,13.0,68,0.00,,,0.00,VWS V14.01,2013-01-18 16:05:00,
2013-01-18 11:10:00,31.1,21.4,30.48,SSW,205,2.0,13.0,67,0.00,,,0.00,VWS V14.01,2013-01-18 16:10:00,
2013-01-18 11:15:00,31.7,22.0,30.47,SW,226,5.0,13.0,67,0.00,,,0.00,VWS V14.01,2013-01-18 16:15:00,
2013-01-18 11:20:00,31.8,21.8,30.47,SSW,207,7.0,13.0,66,0.00,,,0.00,VWS V14.01,2013-01-18 16:20:00,
2013-01-18 11:25:00,32.1,22.0,30.47,SSE,165,4.0,13.0,66,0.00,,,0.00,VWS V14.01,2013-01-18 16:25:00,
2013-01-18 11:30:00,32.2,22.1,30.46,SSW,194,7.0,7.0,66,0.00,,,0.00,VWS V14.01,2013-01-18 16:30:00,
2013-01-18 11:35:00,32.3,22.6,30.45,SSW,193,5.0,10.0,67,0.00,,,0.00,VWS V14.01,2013-01-18 16:35:00,
2013-01-18 11:40:00,32.8,22.7,30.45,SSW,211,5.0,10.0,66,0.00,,,0.00,VWS V14.01,2013-01-18 16:40:00,
2013-01-18 11:45:00,32.8,22.7,30.45,SSW,200,8.0,11.0,66,0.00,,,0.00,VWS V14.01,2013-01-18 16:45:00,
2013-01-18 11:50:00,32.9,22.4,30.44,SE,136,5.0,14.0,65,0.00,,,0.00,VWS V14.01,2013-01-18 16:50:00,
2013-01-18 11:55:00,33.2,23.1,30.44,WSW,248,1.0,14.0,66,0.00,,,0.00,VWS V14.01,2013-01-18 16:55:00,
2013-01-18 12:00:00,33.3,22.8,30.43,SSW,195,3.0,10.0,65,0.00,,,0.00,VWS V14.01,2013-01-18 17:00:00,
2013-01-18 12:05:00,33.4,22.9,30.42,South,177,5.0,12.0,65,0.00,,,0.00,VWS V14.01,2013-01-18 17:05:00,
2013-01-18 12:10:00,33.7,22.8,30.42,SW,219,2.0,12.0,64,0.00,,,0.00,VWS V14.01,2013-01-18 17:10:00,
2013-01-18 12:15:00,33.9,22.6,30.42,South,191,3.0,13.0,63,0.00,,,0.00,VWS V14.01,2013-01-18 17:15:00,
2013-01-18 12:20:00,34.0,22.7,30.41,SW,215,7.0,13.0,63,0.00,,,0.00,VWS V14.01,2013-01-18 17:20:00,
2013-01-18 12:25:00,34.1,22.8,30.41,SW,228,5.0,15.0,63,0.00,,,0.00,VWS V14.01,2013-01-18 17:25:00,
2013-01-18 12:30:00,34.2,22.9,30.41,WSW,240,8.0,12.0,63,0.00,,,0.00,VWS V14.01,2013-01-18 17:30:00,
2013-01-18 12:35:00,34.3,22.6,30.41,SW,236,5.0,13.0,62,0.00,,,0.00,VWS V14.01,2013-01-18 17:35:00,
2013-01-18 12:40:00,34.5,23.2,30.41,SW,226,3.0,13.0,63,0.00,,,0.00,VWS V14.01,2013-01-18 17:40:00,
2013-01-18 12:45:00,34.7,23.8,30.41,SSW,194,1.0,13.0,64,0.00,,,0.00,VWS V14.01,2013-01-18 17:45:00,
2013-01-18 12:50:00,35.1,23.8,30.40,SSE,162,3.0,13.0,63,0.00,,,0.00,VWS V14.01,2013-01-18 17:50:00,
2013-01-18 12:55:00,35.1,23.8,30.40,SSW,208,6.0,16.0,63,0.00,,,0.00,VWS V14.01,2013-01-18 17:55:00,
2013-01-18 13:00:00,35.1,23.8,30.38,SW,224,8.0,12.0,63,0.00,,,0.00,VWS V14.01,2013-01-18 18:00:00,
2013-01-18 13:05:00,35.0,23.3,30.38,South,176,8.0,17.0,62,0.00,,,0.00,VWS V14.01,2013-01-18 18:05:00,
2013-01-18 13:10:00,34.9,22.8,30.38,SSE,159,6.0,17.0,61,0.00,,,0.00,VWS V14.01,2013-01-18 18:10:00,
2013-01-18 13:15:00,35.4,23.3,30.38,South,189,12.0,17.0,61,0.00,,,0.00,VWS V14.01,2013-01-18 18:15:00,
2013-01-18 13:20:00,35.4,22.9,30.37,WSW,239,4.0,17.0,60,0.00,,,0.00,VWS V14.01,2013-01-18 18:20:00,
2013-01-18 13:25:00,35.9,23.4,30.37,SSE,163,7.0,17.0,60,0.00,,,0.00,VWS V14.01,2013-01-18 18:25:00,
2013-01-18 13:30:00,36.1,23.6,30.36,ESE,111,6.0,14.0,60,0.00,,,0.00,VWS V14.01,2013-01-18 18:30:00,
2013-01-18 13:35:00,36.3,23.4,30.35,SSW,201,9.0,14.0,59,0.00,,,0.00,VWS V14.01,2013-01-18 18:35:00,
2013-01-18 13:40:00,36.2,23.3,30.35,SSW,194,3.0,14.0,59,0.00,,,0.00,VWS V14.01,2013-01-18 18:40:00,
2013-01-18 13:45:00,36.6,23.2,30.35,South,183,8.0,14.0,58,0.00,,,0.00,VWS V14.01,2013-01-18 18:45:00,
2013-01-18 13:50:00,36.8,23.0,30.34,WSW,240,4.0,14.0,57,0.00,,,0.00,VWS V14.01,2013-01-18 18:50:00,
2013-01-18 13:55:00,37.0,22.8,30.34,West,259,3.0,14.0,56,0.00,,,0.00,VWS V14.01,2013-01-18 18:55:00,
2013-01-18 14:00:00,36.9,22.7,30.34,SSW,200,11.0,11.0,56,0.00,,,0.00,VWS V14.01,2013-01-18 19:00:00,
2013-01-18 14:05:00,37.3,23.5,30.34,SW,235,3.0,14.0,57,0.00,,,0.00,VWS V14.01,2013-01-18 19:05:00,
2013-01-18 14:10:00,37.6,22.5,30.33,SW,219,5.0,19.0,54,0.00,,,0.00,VWS V14.01,2013-01-18 19:10:00,
2013-01-18 14:15:00,37.6,22.0,30.33,SSW,198,4.0,19.0,53,0.00,,,0.00,VWS V14.01,2013-01-18 19:15:00,
2013-01-18 14:20:00,37.6,21.1,30.33,South,191,4.0,19.0,51,0.00,,,0.00,VWS V14.01,2013-01-18 19:20:00,
2013-01-18 14:25:00,37.8,21.8,30.32,South,169,9.0,19.0,52,0.00,,,0.00,VWS V14.01,2013-01-18 19:25:00,
2013-01-18 14:30:00,37.9,21.4,30.32,South,191,10.0,18.0,51,0.00,,,0.00,VWS V14.01,2013-01-18 19:30:00,
2013-01-18 14:35:00,37.9,21.9,30.32,SW,221,8.0,18.0,52,0.00,,,0.00,VWS V14.01,2013-01-18 19:35:00,
2013-01-18 14:40:00,38.3,21.3,30.31,South,176,6.0,18.0,50,0.00,,,0.00,VWS V14.01,2013-01-18 19:40:00,
2013-01-18 14:45:00,38.7,21.7,30.31,SSW,194,9.0,18.0,50,0.00,,,0.00,VWS V14.01,2013-01-18 19:45:00,
2013-01-18 14:50:00,38.7,21.7,30.31,South,190,11.0,18.0,50,0.00,,,0.00,VWS V14.01,2013-01-18 19:50:00,
2013-01-18 14:55:00,38.5,21.0,30.31,SSW,201,8.0,18.0,49,0.00,,,0.00,VWS V14.01,2013-01-18 19:55:00,
2013-01-18 15:00:00,38.2,21.2,30.30,WSW,254,4.0,12.0,50,0.00,,,0.00,VWS V14.01,2013-01-18 20:00:00,
2013-01-18 15:05:00,37.8,20.8,30.30,WSW,239,3.0,13.0,50,0.00,,,0.00,VWS V14.01,2013-01-18 20:05:00,
2013-01-18 15:10:00,37.6,21.1,30.30,SSW,209,3.0,13.0,51,0.00,,,0.00,VWS V14.01,2013-01-18 20:10:00,
2013-01-18 15:15:00,37.7,21.7,30.30,SW,215,5.0,13.0,52,0.00,,,0.00,VWS V14.01,2013-01-18 20:15:00,
2013-01-18 15:20:00,38.0,22.0,30.30,SW,228,6.0,17.0,52,0.00,,,0.00,VWS V14.01,2013-01-18 20:20:00,
2013-01-18 15:25:00,38.3,22.2,30.29,SW,217,10.0,17.0,52,0.00,,,0.00,VWS V14.01,2013-01-18 20:25:00,
2013-01-18 15:30:00,38.7,23.1,30.29,WSW,257,6.0,11.0,53,0.00,,,0.00,VWS V14.01,2013-01-18 20:30:00,
2013-01-18 15:35:00,38.7,22.6,30.29,South,184,12.0,14.0,52,0.00,,,0.00,VWS V14.01,2013-01-18 20:35:00,
2013-01-18 15:40:00,38.8,22.7,30.28,SW,214,10.0,16.0,52,0.00,,,0.00,VWS V14.01,2013-01-18 20:40:00,
2013-01-18 15:45:00,38.7,22.6,30.28,SSW,205,3.0,16.0,52,0.00,,,0.00,VWS V14.01,2013-01-18 20:45:00,
2013-01-18 15:50:00,38.7,22.6,30.28,SSW,200,3.0,16.0,52,0.00,,,0.00,VWS V14.01,2013-01-18 20:50:00,
2013-01-18 15:55:00,38.7,22.6,30.27,South,170,6.0,16.0,52,0.00,,,0.00,VWS V14.01,2013-01-18 20:55:00,
2013-01-18 16:00:00,38.7,22.6,30.26,South,186,5.0,13.0,52,0.00,,,0.00,VWS V14.01,2013-01-18 21:00:00,
2013-01-18 16:05:00,38.8,23.1,30.26,SE,142,1.0,15.0,53,0.00,,,0.00,VWS V14.01,2013-01-18 21:05:00,
2013-01-18 16:10:00,38.8,22.7,30.26,South,171,10.0,17.0,52,0.00,,,0.00,VWS V14.01,2013-01-18 21:10:00,
2013-01-18 16:15:00,38.6,22.0,30.25,SSW,195,8.0,17.0,51,0.00,,,0.00,VWS V14.01,2013-01-18 21:15:00,
2013-01-18 16:20:00,38.6,23.0,30.25,SE,136,4.0,17.0,53,0.00,,,0.00,VWS V14.01,2013-01-18 21:20:00,
2013-01-18 16:25:00,38.6,23.0,30.25,SSW,195,8.0,17.0,53,0.00,,,0.00,VWS V14.01,2013-01-18 21:25:00,
2013-01-18 16:30:00,38.6,22.0,30.24,WSW,241,7.0,14.0,51,0.00,,,0.00,VWS V14.01,2013-01-18 21:30:00,
2013-01-18 16:35:00,38.5,22.0,30.24,SSW,211,5.0,17.0,51,0.00,,,0.00,VWS V14.01,2013-01-18 21:35:00,
2013-01-18 16:40:00,38.7,22.1,30.24,South,186,9.0,17.0,51,0.00,,,0.00,VWS V14.01,2013-01-18 21:40:00,
2013-01-18 16:45:00,38.8,22.2,30.23,WSW,238,4.0,17.0,51,0.00,,,0.00,VWS V14.01,2013-01-18 21:45:00,
2013-01-18 16:50:00,38.8,22.2,30.23,SSW,198,9.0,17.0,51,0.00,,,0.00,VWS V14.01,2013-01-18 21:50:00,
2013-01-18 16:55:00,38.8,22.2,30.22,SE,131,8.0,17.0,51,0.00,,,0.00,VWS V14.01,2013-01-18 21:55:00,
2013-01-18 17:00:00,38.7,21.7,30.22,SW,218,11.0,18.0,50,0.00,,,0.00,VWS V14.01,2013-01-18 22:00:00,
2013-01-18 17:05:00,38.3,21.8,30.22,SW,223,12.0,18.0,51,0.00,,,0.00,VWS V14.01,2013-01-18 22:05:00,
2013-01-18 17:10:00,38.2,22.1,30.22,South,187,3.0,18.0,52,0.00,,,0.00,VWS V14.01,2013-01-18 22:10:00,
2013-01-18 17:15:00,38.1,22.0,30.21,South,174,5.0,12.0,52,0.00,,,0.00,VWS V14.01,2013-01-18 22:15:00,
2013-01-18 17:20:00,38.1,22.0,30.21,SSW,198,5.0,12.0,52,0.00,,,0.00,VWS V14.01,2013-01-18 22:20:00,
2013-01-18 17:25:00,38.1,22.0,30.21,SSE,167,9.0,14.0,52,0.00,,,0.00,VWS V14.01,2013-01-18 22:25:00,
2013-01-18 17:30:00,38.0,22.0,30.21,SE,146,4.0,14.0,52,0.00,,,0.00,VWS V14.01,2013-01-18 22:30:00,
2013-01-18 17:35:00,37.9,21.9,30.21,SSE,150,4.0,14.0,52,0.00,,,0.00,VWS V14.01,2013-01-18 22:35:00,
2013-01-18 17:40:00,37.7,22.1,30.21,SW,223,5.0,14.0,53,0.00,,,0.00,VWS V14.01,2013-01-18 22:40:00,
2013-01-18 17:45:00,37.6,22.5,30.21,SSW,194,6.0,10.0,54,0.00,,,0.00,VWS V14.01,2013-01-18 22:45:00,
2013-01-18 17:50:00,37.5,22.4,30.21,South,169,5.0,12.0,54,0.00,,,0.00,VWS V14.01,2013-01-18 22:50:00,
2013-01-18 17:55:00,37.5,22.4,30.21,SW,219,3.0,12.0,54,0.00,,,0.00,VWS V14.01,2013-01-18 22:55:00,
2013-01-18 18:00:00,37.5,22.4,30.21,SSW,212,6.0,10.0,54,0.00,,,0.00,VWS V14.01,2013-01-18 23:00:00,
2013-01-18 18:05:00,37.4,22.3,30.21,SSW,201,4.0,11.0,54,0.00,,,0.00,VWS V14.01,2013-01-18 23:05:00,
2013-01-18 18:10:00,37.4,22.3,30.21,SSE,167,4.0,13.0,54,0.00,,,0.00,VWS V14.01,2013-01-18 23:10:00,
2013-01-18 18:15:00,37.3,22.2,30.21,SSE,163,3.0,13.0,54,0.00,,,0.00,VWS V14.01,2013-01-18 23:15:00,
2013-01-18 18:20:00,37.3,22.6,30.20,SSE,147,6.0,13.0,55,0.00,,,0.00,VWS V14.01,2013-01-18 23:20:00,
2013-01-18 18:25:00,37.2,22.5,30.20,SSE,157,6.0,13.0,55,0.00,,,0.00,VWS V14.01,2013-01-18 23:25:00,
2013-01-18 18:30:00,37.3,22.6,30.20,SSW,211,5.0,9.0,55,0.00,,,0.00,VWS V14.01,2013-01-18 23:30:00,
2013-01-18 18:35:00,37.3,22.6,30.20,West,259,1.0,10.0,55,0.00,,,0.00,VWS V14.01,2013-01-18 23:35:00,
2013-01-18 18:40:00,37.2,22.5,30.20,SSW,208,6.0,10.0,55,0.00,,,0.00,VWS V14.01,2013-01-18 23:40:00,
2013-01-18 18:45:00,37.2,22.5,30.20,SSE,165,5.0,10.0,55,0.00,,,0.00,VWS V14.01,2013-01-18 23:45:00,
2013-01-18 18:50:00,37.2,22.5,30.20,SE,134,6.0,15.0,55,0.00,,,0.00,VWS V14.01,2013-01-18 23:50:00,
2013-01-18 18:55:00,37.2,22.5,30.19,SSW,208,2.0,15.0,55,0.00,,,0.00,VWS V14.01,2013-01-18 23:55:00,
2013-01-18 19:00:00,37.1,22.4,30.19,West,259,3.0,7.0,55,0.00,,,0.00,VWS V14.01,2013-01-19 00:00:00,
2013-01-18 19:05:00,37.1,22.9,30.19,SSE,156,5.0,8.0,56,0.00,,,0.00,VWS V14.01,2013-01-19 00:05:00,
2013-01-18 19:10:00,37.1,22.9,30.19,WSW,257,6.0,13.0,56,0.00,,,0.00,VWS V14.01,2013-01-19 00:10:00,
2013-01-18 19:15:00,37.2,23.0,30.19,SW,225,12.0,17.0,56,0.00,,,0.00,VWS V14.01,2013-01-19 00:15:00,
2013-01-18 19:20:00,37.2,23.0,30.19,SSE,166,3.0,17.0,56,0.00,,,0.00,VWS V14.01,2013-01-19 00:20:00,
2013-01-18 19:25:00,37.2,23.0,30.18,SE,139,2.0,9.0,56,0.00,,,0.00,VWS V14.01,2013-01-19 00:25:00,
2013-01-18 19:30:00,37.2,23.0,30.18,SW,221,4.0,8.0,56,0.00,,,0.00,VWS V14.01,2013-01-19 00:30:00,
2013-01-18 19:35:00,37.3,23.1,30.18,South,186,2.0,10.0,56,0.00,,,0.00,VWS V14.01,2013-01-19 00:35:00,
2013-01-18 19:40:00,37.3,23.1,30.18,SW,214,7.0,11.0,56,0.00,,,0.00,VWS V14.01,2013-01-19 00:40:00,
2013-01-18 19:45:00,37.3,23.5,30.17,South,188,4.0,16.0,57,0.00,,,0.00,VWS V14.01,2013-01-19 00:45:00,
2013-01-18 19:50:00,37.5,23.7,30.17,ESE,114,4.0,16.0,57,0.00,,,0.00,VWS V14.01,2013-01-19 00:50:00,
2013-01-18 19:55:00,37.5,23.7,30.17,South,174,6.0,16.0,57,0.00,,,0.00,VWS V14.01,2013-01-19 00:55:00,
2013-01-18 20:00:00,37.5,23.7,30.17,SW,235,6.0,16.0,57,0.00,,,0.00,VWS V14.01,2013-01-19 01:00:00,
2013-01-18 20:05:00,37.5,23.7,30.16,SW,219,5.0,16.0,57,0.00,,,0.00,VWS V14.01,2013-01-19 01:05:00,
2013-01-18 20:10:00,37.5,24.1,30.17,SW,214,15.0,15.0,58,0.00,,,0.00,VWS V14.01,2013-01-19 01:10:00,
2013-01-18 20:15:00,37.6,24.2,30.16,SSW,194,7.0,19.0,58,0.00,,,0.00,VWS V14.01,2013-01-19 01:15:00,
2013-01-18 20:20:00,37.6,24.2,30.16,South,188,7.0,19.0,58,0.00,,,0.00,VWS V14.01,2013-01-19 01:20:00,
2013-01-18 20:25:00,37.6,24.2,30.16,SW,232,12.0,19.0,58,0.00,,,0.00,VWS V14.01,2013-01-19 01:25:00,
2013-01-18 20:30:00,37.7,24.7,30.15,South,177,5.0,17.0,59,0.00,,,0.00,VWS V14.01,2013-01-19 01:30:00,
2013-01-18 20:35:00,37.7,24.7,30.15,SSW,204,4.0,19.0,59,0.00,,,0.00,VWS V14.01,2013-01-19 01:35:00,
2013-01-18 20:40:00,37.6,25.0,30.15,SSE,153,4.0,19.0,60,0.00,,,0.00,VWS V14.01,2013-01-19 01:40:00,
2013-01-18 20:45:00,37.8,25.2,30.14,SE,141,10.0,20.0,60,0.00,,,0.00,VWS V14.01,2013-01-19 01:45:00,
2013-01-18 20:50:00,37.9,25.3,30.14,South,179,7.0,20.0,60,0.00,,,0.00,VWS V14.01,2013-01-19 01:50:00,
2013-01-18 20:55:00,38.0,25.4,30.14,West,271,4.0,22.0,60,0.00,,,0.00,VWS V14.01,2013-01-19 01:55:00,
2013-01-18 21:00:00,38.3,25.6,30.13,SSE,148,4.0,14.0,60,0.00,,,0.00,VWS V14.01,2013-01-19 02:00:00,
2013-01-18 21:05:00,38.5,25.8,30.13,South,172,11.0,22.0,60,0.00,,,0.00,VWS V14.01,2013-01-19 02:05:00,
2013-01-18 21:10:00,38.4,25.7,30.13,SSW,195,5.0,22.0,60,0.00,,,0.00,VWS V14.01,2013-01-19 02:10:00,
2013-01-18 21:15:00,38.3,26.0,30.12,SSE,159,12.0,22.0,61,0.00,,,0.00,VWS V14.01,2013-01-19 02:15:00,
2013-01-18 21:20:00,38.1,26.2,30.12,SSE,157,6.0,22.0,62,0.00,,,0.00,VWS V14.01,2013-01-19 02:20:00,
2013-01-18 21:25:00,38.0,26.1,30.12,SSE,164,20.0,22.0,62,0.00,,,0.00,VWS V14.01,2013-01-19 02:25:00,
2013-01-18 21:30:00,38.1,26.2,30.12,SSW,201,4.0,11.0,62,0.00,,,0.00,VWS V14.01,2013-01-19 02:30:00,
2013-01-18 21:35:00,38.0,26.1,30.12,SW,235,3.0,16.0,62,0.00,,,0.00,VWS V14.01,2013-01-19 02:35:00,
2013-01-18 21:40:00,38.1,26.6,30.11,SSE,152,2.0,18.0,63,0.00,,,0.00,VWS V14.01,2013-01-19 02:40:00,
2013-01-18 21:45:00,38.1,26.6,30.12,South,173,17.0,20.0,63,0.00,,,0.00,VWS V14.01,2013-01-19 02:45:00,
2013-01-18 21:50:00,38.2,26.7,30.11,SW,217,12.0,21.0,63,0.00,,,0.00,VWS V14.01,2013-01-19 02:50:00,
2013-01-18 21:55:00,38.2,26.7,30.11,East,100,3.0,21.0,63,0.00,,,0.00,VWS V14.01,2013-01-19 02:55:00,
2013-01-18 22:00:00,38.3,26.8,30.11,SSW,195,5.0,12.0,63,0.00,,,0.00,VWS V14.01,2013-01-19 03:00:00,
2013-01-18 22:05:00,38.2,26.7,30.11,South,191,6.0,17.0,63,0.00,,,0.00,VWS V14.01,2013-01-19 03:05:00,
2013-01-18 22:10:00,38.3,26.8,30.11,SSW,201,5.0,17.0,63,0.00,,,0.00,VWS V14.01,2013-01-19 03:10:00,
2013-01-18 22:15:00,38.3,26.8,30.11,South,188,9.0,19.0,63,0.00,,,0.00,VWS V14.01,2013-01-19 03:15:00,
2013-01-18 22:20:00,38.2,26.7,30.11,South,181,15.0,19.0,63,0.00,,,0.00,VWS V14.01,2013-01-19 03:20:00,
2013-01-18 22:25:00,38.3,26.8,30.11,SW,222,12.0,19.0,63,0.00,,,0.00,VWS V14.01,2013-01-19 03:25:00,
2013-01-18 22:30:00,38.3,27.2,30.11,SW,221,7.0,20.0,64,0.00,,,0.00,VWS V14.01,2013-01-19 03:30:00,
2013-01-18 22:35:00,38.4,26.9,30.11,SSW,204,5.0,20.0,63,0.00,,,0.00,VWS V14.01,2013-01-19 03:35:00,
2013-01-18 22:40:00,38.4,26.9,30.11,SSW,193,21.0,21.0,63,0.00,,,0.00,VWS V14.01,2013-01-19 03:40:00,
2013-01-18 22:45:00,38.4,26.9,30.11,SSW,212,4.0,21.0,63,0.00,,,0.00,VWS V14.01,2013-01-19 03:45:00,
2013-01-18 22:50:00,38.5,27.0,30.11,SW,216,10.0,21.0,63,0.00,,,0.00,VWS V14.01,2013-01-19 03:50:00,
2013-01-18 22:55:00,38.3,27.2,30.11,SSE,155,0.0,21.0,64,0.00,,,0.00,VWS V14.01,2013-01-19 03:55:00,
2013-01-18 23:00:00,38.2,27.1,30.11,West,277,4.0,10.0,64,0.00,,,0.00,VWS V14.01,2013-01-19 04:00:00,
2013-01-18 23:05:00,38.2,27.1,30.11,SSW,212,5.0,13.0,64,0.00,,,0.00,VWS V14.01,2013-01-19 04:05:00,
2013-01-18 23:10:00,38.2,27.1,30.11,SSW,204,5.0,16.0,64,0.00,,,0.00,VWS V14.01,2013-01-19 04:10:00,
2013-01-18 23:15:00,38.2,27.1,30.11,SW,228,4.0,16.0,64,0.00,,,0.00,VWS V14.01,2013-01-19 04:15:00,
2013-01-18 23:20:00,38.1,27.0,30.11,WSW,252,1.0,16.0,64,0.00,,,0.00,VWS V14.01,2013-01-19 04:20:00,
2013-01-18 23:25:00,38.1,27.4,30.11,WSW,247,4.0,16.0,65,0.00,,,0.00,VWS V14.01,2013-01-19 04:25:00,
2013-01-18 23:30:00,38.0,27.3,30.12,SSW,198,5.0,11.0,65,0.00,,,0.00,VWS V14.01,2013-01-19 04:30:00,
2013-01-18 23:35:00,37.9,27.2,30.11,South,172,4.0,13.0,65,0.00,,,0.00,VWS V14.01,2013-01-19 04:35:00,
2013-01-18 23:40:00,37.9,27.2,30.11,SSW,201,4.0,13.0,65,0.00,,,0.00,VWS V14.01,2013-01-19 04:40:00,
2013-01-18 23:45:00,37.8,27.1,30.11,SSW,204,4.0,13.0,65,0.00,,,0.00,VWS V14.01,2013-01-19 04:45:00,
2013-01-18 23:50:00,37.8,27.1,30.12,WSW,238,4.0,13.0,65,0.00,,,0.00,VWS V14.01,2013-01-19 04:50:00,
2013-01-18 23:55:00,37.7,27.0,30.11,SSW,204,3.0,13.0,65,0.00,,,0.00,VWS V14.01,2013-01-19 04:55:00,